When you browse on this site, cookies collect data to enhance your experience and personalize the content and advertising you see.
Visit our Privacy Policy to learn more. By continuing to use the site, you agree to this use of cookies and data.
EN

Hourly Weather Veendam

Today, 5 August, Wednesday

Time Temperature Precipitation Wind Pressure Humidity
00:00 +14°C° 0 mm 4 mps 761 mmHg 70%
01:00 +13°C° 0 mm 4 mps 761 mmHg 69%
02:00 +13°C° 0 mm 4 mps 761 mmHg 67%
03:00 +13°C° 0 mm 4 mps 761 mmHg 66%
04:00 +14°C° 0 mm 4 mps 761 mmHg 67%
05:00 +14°C° 0 mm 5 mps 761 mmHg 69%
06:00 +15°C° 0 mm 5 mps 760 mmHg 70%
07:00 +16°C° 0 mm 5 mps 761 mmHg 69%
08:00 +19°C° 0 mm 5 mps 761 mmHg 68%
09:00 +20°C° 0 mm 6 mps 762 mmHg 66%
10:00 +21°C° 0 mm 6 mps 761 mmHg 63%
11:00 +23°C° 0 mm 5 mps 761 mmHg 60%
12:00 +25°C° 0 mm 5 mps 761 mmHg 57%
13:00 +25°C° 0 mm 5 mps 761 mmHg 57%
14:00 +26°C° 0 mm 4 mps 761 mmHg 56%
15:00 +26°C° 0 mm 4 mps 761 mmHg 56%
16:00 +25°C° 0 mm 3 mps 761 mmHg 61%
17:00 +25°C° 0 mm 2 mps 761 mmHg 65%
18:00 +24°C° 0 mm 2 mps 761 mmHg 69%
19:00 +23°C° 0 mm 2 mps 762 mmHg 69%
20:00 +20°C° 0 mm 3 mps 762 mmHg 68%
21:00 +19°C° 0 mm 3 mps 762 mmHg 68%
22:00 +19°C° 0 mm 3 mps 762 mmHg 67%
23:00 +18°C° 0 mm 3 mps 762 mmHg 67%

Tomorrow, 6 August, Thursday

Time Temperature Precipitation Wind Pressure Humidity
00:00 +18°C° 0 mm 3 mps 762 mmHg 67%
01:00 +18°C° 0 mm 3 mps 762 mmHg 67%
02:00 +17°C° 0 mm 3 mps 762 mmHg 68%
03:00 +17°C° 0 mm 3 mps 763 mmHg 68%
04:00 +17°C° 0 mm 3 mps 763 mmHg 70%
05:00 +18°C° 0 mm 3 mps 763 mmHg 72%
06:00 +18°C° 0 mm 3 mps 763 mmHg 74%
07:00 +20°C° 0 mm 3 mps 764 mmHg 69%
08:00 +22°C° 0 mm 3 mps 764 mmHg 65%
09:00 +25°C° 0 mm 2 mps 764 mmHg 60%
10:00 +26°C° 0 mm 2 mps 764 mmHg 57%
11:00 +27°C° 0 mm 2 mps 765 mmHg 54%
12:00 +28°C° 0 mm 2 mps 765 mmHg 51%
13:00 +28°C° 0 mm 2 mps 765 mmHg 50%
14:00 +29°C° 0 mm 2 mps 765 mmHg 49%
15:00 +29°C° 0 mm 1 mps 765 mmHg 49%
16:00 +28°C° 0 mm 1 mps 765 mmHg 53%
17:00 +27°C° 0 mm 1 mps 765 mmHg 58%
18:00 +26°C° 0 mm 1 mps 765 mmHg 63%
19:00 +25°C° 0 mm 1 mps 765 mmHg 65%
20:00 +23°C° 0 mm 2 mps 765 mmHg 66%
21:00 +21°C° 0 mm 2 mps 765 mmHg 68%
22:00 +20°C° 0 mm 2 mps 765 mmHg 70%
23:00 +20°C° 0 mm 2 mps 765 mmHg 71%

Day after tomorrow, 7 August, Friday

Time Temperature Precipitation Wind Pressure Humidity
00:00 +19°C° 0 mm 3 mps 765 mmHg 73%
01:00 +19°C° 0 mm 3 mps 765 mmHg 72%
02:00 +19°C° 0 mm 3 mps 765 mmHg 71%
03:00 +19°C° 0 mm 3 mps 765 mmHg 70%
04:00 +19°C° 0 mm 3 mps 765 mmHg 72%
05:00 +19°C° 0 mm 3 mps 765 mmHg 73%
06:00 +19°C° 0 mm 3 mps 766 mmHg 74%
07:00 +21°C° 0 mm 3 mps 766 mmHg 71%
08:00 +24°C° 0 mm 3 mps 766 mmHg 67%
09:00 +26°C° 0 mm 3 mps 766 mmHg 63%
10:00 +27°C° 0 mm 3 mps 766 mmHg 59%
11:00 +28°C° 0 mm 3 mps 766 mmHg 56%
12:00 +29°C° 0 mm 3 mps 765 mmHg 53%
13:00 +29°C° 0 mm 3 mps 765 mmHg 53%
14:00 +29°C° 0 mm 3 mps 765 mmHg 54%
15:00 +30°C° 0 mm 3 mps 765 mmHg 55%
16:00 +29°C° 0 mm 3 mps 765 mmHg 61%
17:00 +28°C° 0 mm 2 mps 765 mmHg 66%
18:00 +27°C° 0 mm 2 mps 765 mmHg 72%
19:00 +25°C° 0 mm 2 mps 765 mmHg 76%
20:00 +24°C° 0 mm 3 mps 765 mmHg 80%
21:00 +22°C° 0 mm 3 mps 765 mmHg 83%
22:00 +21°C° 0 mm 3 mps 765 mmHg 85%
23:00 +21°C° 0 mm 3 mps 764 mmHg 87%

8 August, Saturday

Time Temperature Precipitation Wind Pressure Humidity
00:00 +20°C° 0 mm 3 mps 764 mmHg 89%
01:00 +20°C° 0 mm 3 mps 764 mmHg 90%
02:00 +20°C° 0 mm 3 mps 764 mmHg 91%
03:00 +20°C° 0 mm 3 mps 763 mmHg 92%
04:00 +20°C° 0 mm 3 mps 763 mmHg 90%
05:00 +21°C° 0 mm 2 mps 763 mmHg 87%
06:00 +23°C° 0 mm 2 mps 763 mmHg 85%
07:00 +25°C° 0 mm 2 mps 763 mmHg 79%
08:00 +26°C° 0 mm 2 mps 763 mmHg 73%
09:00 +28°C° 0 mm 2 mps 763 mmHg 67%
10:00 +29°C° 0 mm 1 mps 763 mmHg 62%
11:00 +31°C° 0 mm 1 mps 763 mmHg 57%
12:00 +32°C° 0 mm 1 mps 763 mmHg 52%
13:00 +32°C° 0 mm 2 mps 763 mmHg 53%
14:00 +31°C° 0 mm 2 mps 763 mmHg 54%
15:00 +31°C° 0 mm 3 mps 763 mmHg 55%
16:00 +29°C° 0 mm 3 mps 763 mmHg 63%
17:00 +27°C° 0 mm 3 mps 764 mmHg 71%
18:00 +25°C° 0 mm 3 mps 764 mmHg 79%
19:00 +24°C° 0 mm 3 mps 764 mmHg 84%
20:00 +21°C° 0 mm 4 mps 764 mmHg 89%
21:00 +20°C° 0 mm 4 mps 765 mmHg 93%
22:00 +19°C° 0 mm 4 mps 765 mmHg 94%
23:00 +19°C° 0 mm 4 mps 765 mmHg 95%

9 August, Sunday

Time Temperature Precipitation Wind Pressure Humidity
00:00 +19°C° 0 mm 4 mps 765 mmHg 96%
01:00 +18°C° 0 mm 4 mps 765 mmHg 96%
02:00 +18°C° 0 mm 4 mps 765 mmHg 96%
03:00 +17°C° 0 mm 5 mps 765 mmHg 96%
04:00 +17°C° 0 mm 5 mps 765 mmHg 95%
05:00 +17°C° 0 mm 5 mps 765 mmHg 94%
06:00 +17°C° 0 mm 5 mps 766 mmHg 92%
07:00 +17°C° 0 mm 5 mps 766 mmHg 90%
08:00 +19°C° 0 mm 5 mps 766 mmHg 88%
09:00 +19°C° 0 mm 5 mps 766 mmHg 85%
10:00 +20°C° 0 mm 6 mps 766 mmHg 81%
11:00 +21°C° 0 mm 6 mps 766 mmHg 76%
12:00 +22°C° 0 mm 6 mps 766 mmHg 71%
13:00 +21°C° 0 mm 6 mps 765 mmHg 70%
14:00 +21°C° 0 mm 6 mps 765 mmHg 69%
15:00 +21°C° 0 mm 6 mps 765 mmHg 69%
16:00 +20°C° 0 mm 6 mps 765 mmHg 71%
17:00 +17°C° 0 mm 6 mps 765 mmHg 74%
18:00 +16°C° 0 mm 5 mps 765 mmHg 77%
19:00 +15°C° 0 mm 5 mps 765 mmHg 80%
20:00 +14°C° 0 mm 4 mps 765 mmHg 84%
21:00 +14°C° 0 mm 4 mps 765 mmHg 87%
22:00 +13°C° 0 mm 4 mps 765 mmHg 89%
23:00 +13°C° 0 mm 4 mps 765 mmHg 90%

10 August, Monday

Time Temperature Precipitation Wind Pressure Humidity
00:00 +13°C° 0 mm 4 mps 765 mmHg 92%
01:00 +13°C° 0 mm 4 mps 765 mmHg 92%
02:00 +13°C° 0 mm 4 mps 765 mmHg 92%
03:00 +13°C° 0 mm 3 mps 765 mmHg 93%
04:00 +13°C° 0 mm 4 mps 764 mmHg 90%
05:00 +14°C° 0 mm 4 mps 764 mmHg 88%
06:00 +15°C° 0 mm 4 mps 764 mmHg 85%
07:00 +17°C° 0 mm 4 mps 764 mmHg 79%
08:00 +19°C° 0 mm 4 mps 764 mmHg 74%
09:00 +20°C° 0 mm 4 mps 764 mmHg 68%
10:00 +21°C° 0 mm 4 mps 764 mmHg 64%
11:00 +22°C° 0 mm 3 mps 764 mmHg 60%
12:00 +24°C° 0 mm 3 mps 764 mmHg 56%
13:00 +24°C° 0 mm 3 mps 763 mmHg 58%
14:00 +23°C° 0 mm 4 mps 763 mmHg 59%
15:00 +23°C° 0 mm 4 mps 763 mmHg 61%
16:00 +21°C° 0 mm 4 mps 763 mmHg 66%
17:00 +20°C° 0 mm 4 mps 763 mmHg 71%
18:00 +19°C° 0 mm 4 mps 763 mmHg 76%
19:00 +18°C° 0 mm 3 mps 763 mmHg 79%
20:00 +16°C° 0 mm 3 mps 763 mmHg 82%
21:00 +14°C° 0 mm 3 mps 763 mmHg 85%
22:00 +14°C° 0 mm 3 mps 763 mmHg 83%
23:00 +14°C° 0 mm 3 mps 763 mmHg 82%
Show more